CAPE
0 0 0 0 4 1 0 0 1 0 0 0 0 0 0 0 0 0 0 0 0 0 0 0 0 0 2 2 0 0 0 0 0 0 0 0 0 0
0 0 0 0 0 0 0 0 0 0 0 0 0 0 0 0 0 0 0 0 0 0 0 0 0 0 0 3 0 0 1 1 0 0 0 0 0 0
0 0 0 0 0 0 0 0 0 0 0 0 0 0 0 0 0 0 0 0 0 0 0 0 0 0 0 0 5 0 0 0 0 0 0 0 0 0
0 0 0 0 0 0 0 0 0 0 0 0 0 0 0 0 0 0 0 0 0 0 0 0 0 0 0 0 1 4 6 2 0 0 0 0 0 0
0 0 0 0 0 0 0 0 0 0 1 10 5 0 0 0 0 0 0 0 0 0 0 0 0 0 1 0 0 3 0 4 1 0 0 0 0 0
0 0 0 0 0 0 0 0 0 0 0 0 0 0 0 0 0 0 0 0 0 0 0 0 0 0 0 0 0 1 1 2 2 3 1 1 1 0
0 0 0 0 6 6 6 1 0 0 1 2 1 0 0 0 0 0 0 0 0 0 0 0 0 0 0 0 0 1 6 5 4 0 2 1 0 0
0 0 0 0 0 3 0 1 3 4 3 2 2 4 1 0 0 0 0 0 0 0 0 0 0 0 0 0 0 0 0 0 4 0 0 0 0 0
0 0 0 0 0 0 0 0 0 0 1 1 6 0 0 0 0 0 0 0 0 0 0 0 0 0 0 0 0 0 0 0 0 0 0 0 0 0
0 0 0 0 0 0 0 0 0 0 0 0 0 0 0 0 0 0 0 0 0 0 0 1 0 0 0 0 0 0 0 0 0 0 0 0 0 0
0 0 0 0 0 3 2 0 0 0 0 2 6 14 14 15 9 5 1 0 0 0 0 0 0 0 0 0 0 0 0 0 0 0 0 0 0 0
0 0 0 2 1 2 0 0 0 0 0 0 0 0 0 0 0 0 0 0 1 0 0 0 0 0 0 0 0 0 0 0 0 0 0 0 0 0
0 0 0 0 5 6 3 0 0 0 0 0 0 0 0 0 0 0 0 0 0 0 0 0 0 0 0 0 0 0 0 0 0 0 0 0 0 0
0 0 0 3 2 3 1 2 1 0 0 0 0 0 0 0 0 0 0 0 0 0 0 0 0 0 0 0 0 0 0 0 0 0 0 0 0 0
0 0 0 0 0 0 0 1 0 0 0 0 0 0 0 0 0 0 0 0 0 0 0 1 0 0 0 0 1 1 0 0 0 0 0 0 0 0
0 0 0 0 0 0 0 0 0 0 0 0 0 0 0 0 0 0 0 0 0 0 0 0 0 0 0 0 0 1 0 0 0 0 0 0 0 0
0 0 0 0 0 0 0 0 0 0 0 0 0 0 0 0 0 0 0 0 0 0 0 0 0 0 1 0 1 0 0 0 0 0 0 0 0 0
0 0 0 0 0 0 0 0 0 0 0 0 0 0 0 0 0 0 0 0 0 0 0 0 0 0 0 0 0 0 0 0 0 0 0 1 1 0
0 0 0 0 0 0 0 0 0 0 0 0 0 0 0 0 0 0 0 0 0 0 0 0 0 0 0 0 0 0 0 0 0 0 0 0 1 0
0 0 0 0 0 0 0 0 0 0 0 0 0 0 0 0 0 0 0 0 0 0 0 0 0 0 1 0 0 0 0 2 0 0 0 0 0 0
0 0 0 0 0 0 0 0 0 0 0 0 0 0 0 0 0 0 0 0 0 0 0 0 0 0 0 0 0 0 0 0 0 1 0 0 0 0
0 0 0 0 0 0 0 0 0 0 0 0 0 0 0 0 0 0 0 0 0 0 0 0 0 0 0 0 0 0 0 0 1 0 0 0 0 0
0 0 0 0 0 0 0 0 0 0 0 0 0 0 0 0 0 0 0 0 0 0 0 0 0 0 0 0 0 0 0 0 0 0 0 0 0 0
CIN
0 0 0 0 -35 -36 0 0 0 0 0 0 0 0 0 0 0 0 0 0 0 0 0 0 0 0 0 0 0 0 0 -1 0 0 0 0 0 0
0 0 0 0 0 0 0 0 0 0 0 0 0 0 0 0 0 0 0 0 0 0 0 0 0 0 0 0 0 0 0 0 0 0 0 0 0 0
0 0 0 0 0 0 0 0 0 0 0 0 0 0 0 0 0 0 0 0 0 0 0 0 0 0 0 0 0 -1 0 0 -3 -5 0 0 0 0
0 0 0 0 0 0 0 0 0 0 0 0 0 0 0 0 0 0 0 0 0 0 0 0 0 0 0 0 0 0 0 -1 0 0 0 0 0 0
0 0 0 0 0 0 0 0 0 0 -1 0 0 -3 0 0 0 0 0 0 0 0 0 0 0 0 0 0 0 0 0 0 0 0 0 0 0 0
0 0 0 0 0 0 0 0 0 0 0 0 0 0 0 0 0 0 0 0 0 0 0 0 0 0 0 0 0 -3 -2 0 0 0 -1 -4 -7 0
0 0 0 0 -1 -1 0 -2 0 0 0 0 -1 0 -2 -1 0 0 0 0 0 0 0 0 0 0 0 0 0 -6 -24 -15 -10 0 -7 -9 0 0
0 0 0 0 0 -1 -1 -1 -1 -1 -1 0 -1 -1 -4 0 0 0 0 0 0 0 0 0 0 0 0 0 0 0 0 0 -33 0 0 0 0 0
0 0 0 0 0 0 0 0 0 0 -1 -2 -1 -1 0 0 0 0 0 0 0 0 0 0 0 0 0 0 0 0 0 0 0 0 0 -7 0 0
0 0 0 0 0 -1 -1 0 0 0 0 0 0 0 0 0 0 0 0 0 0 0 0 0 0 0 0 0 0 0 0 0 0 0 0 0 0 0
0 0 -1 0 0 -1 0 0 0 0 0 0 0 0 0 0 -1 -1 0 0 0 0 0 0 0 0 0 0 0 0 0 0 0 0 0 0 0 0
0 0 0 0 -1 -1 -2 0 0 0 0 0 0 0 0 0 0 -1 0 0 0 0 0 0 0 0 0 0 0 0 0 0 0 0 0 0 0 0
0 0 0 0 -1 -1 -1 0 0 0 0 0 0 0 0 0 0 0 0 0 0 0 0 0 0 0 0 0 0 0 0 0 0 0 0 0 0 0
0 0 0 -1 -2 -1 -2 0 0 0 0 0 0 0 0 0 0 0 0 0 0 0 0 0 0 0 0 0 0 0 0 0 0 0 0 0 0 0
0 0 0 0 0 0 -1 0 0 0 0 0 0 0 0 0 0 0 0 0 0 0 0 0 0 0 0 0 -5 -7 -3 0 0 0 0 0 0 0
0 0 0 0 0 0 0 0 0 0 0 0 0 0 0 0 0 0 0 0 0 0 0 0 0 0 0 0 0 -3 0 0 0 0 0 0 0 0
0 0 0 0 0 0 0 0 0 0 0 0 0 0 0 0 0 0 0 0 0 0 0 0 0 0 0 -4 -2 -6 0 0 0 0 0 0 0 0
0 0 0 0 0 0 0 0 0 0 0 0 0 0 0 0 0 0 0 0 0 0 0 0 0 0 -8 0 0 -2 0 0 0 -1 0 0 0 0
0 0 0 0 0 0 0 0 0 0 0 0 0 0 0 0 0 0 0 0 0 0 0 0 0 0 0 0 0 0 0 0 0 0 0 0 0 -1
0 0 0 0 0 0 0 0 0 0 0 0 0 0 0 0 0 0 0 0 0 0 0 0 0 0 0 0 0 0 0 0 0 0 0 0 0 0
0 0 0 0 0 0 0 0 0 0 0 0 0 0 0 0 0 0 0 0 0 0 0 0 0 0 0 0 0 0 0 0 0 0 0 0 0 0
0 0 0 0 0 0 0 0 0 0 0 0 0 0 0 0 0 0 0 0 0 0 0 0 0 0 0 0 0 0 0 0 0 0 0 0 0 0
0 0 0 0 0 0 0 0 0 0 0 0 0 0 0 0 0 0 0 0 0 0 0 0 0 0 0 0 0 0 0 0 0 0 0 0 0 0
Wind_Speed
32 33 33 34 34 32 30 30 35 41 43 37 38 33 35 36 36 33 33 34 34 34 34 33 32 33 37 35 33 29 30 28 26 27 27 28 28 28
30 31 32 32 32 28 30 32 31 36 44 39 41 39 38 38 35 31 33 34 34 35 34 33 32 31 33 35 34 32 31 27 26 27 29 29 29 29
29 31 30 29 29 31 33 34 35 34 39 47 40 41 42 40 34 32 32 33 33 34 32 34 34 31 29 33 35 32 35 35 32 30 29 32 31 30
30 31 30 30 32 31 31 33 33 33 35 43 43 40 39 37 34 35 34 33 33 34 34 33 31 32 31 29 35 36 36 35 37 36 36 32 33 33
31 30 32 32 33 33 33 35 35 34 33 36 40 36 36 35 35 34 34 34 33 33 34 35 33 32 32 32 31 34 36 37 38 35 36 36 36 33
30 31 31 31 33 34 33 33 33 35 35 35 36 38 36 35 33 34 35 34 35 33 34 36 36 34 32 30 33 35 33 34 35 37 40 40 37 35
31 31 30 31 33 33 33 33 34 34 34 34 35 35 35 34 34 33 34 34 35 34 35 34 34 33 30 27 28 28 32 36 38 36 38 38 39 38
33 33 33 33 32 31 33 32 29 30 29 28 29 32 34 35 34 34 34 35 36 28 30 29 26 30 32 31 30 31 31 31 33 36 37 37 37 36
34 34 33 32 33 31 29 25 25 23 22 22 23 28 31 31 33 35 34 34 34 30 31 35 30 33 31 31 31 33 34 34 32 32 34 33 34 36
32 31 31 31 29 26 22 24 24 24 22 19 16 19 21 27 30 32 32 32 32 30 28 34 30 34 33 34 36 36 37 37 37 35 34 35 34 35
31 30 30 29 26 23 27 28 25 23 21 17 13 11 9 29 33 31 34 32 31 29 28 30 30 31 31 33 31 31 34 37 39 37 37 36 38 38
30 30 28 28 26 29 28 26 21 23 21 18 16 5 4 17 26 29 33 35 32 31 29 28 30 26 25 23 22 23 26 31 34 34 35 36 36 37
31 30 28 27 30 27 24 21 19 21 14 8 2 4 10 13 16 21 25 30 32 33 25 21 23 22 23 23 23 23 24 25 26 28 28 31 33 35
29 28 26 31 30 25 23 22 25 20 14 4 4 9 13 16 18 18 19 24 27 28 26 28 23 22 21 23 25 22 21 22 22 22 25 27 28 29
26 28 28 31 31 25 26 26 25 20 11 3 9 12 14 16 17 17 17 17 23 26 27 28 27 25 24 24 22 22 22 20 21 21 22 23 25 25
27 27 27 30 30 26 28 27 23 21 8 4 10 12 13 15 14 15 16 15 13 14 16 20 23 24 21 20 18 22 19 19 16 19 21 24 25 26
26 27 28 29 32 30 31 30 25 19 9 13 16 16 16 15 14 14 15 15 15 15 15 14 17 20 22 21 21 22 22 22 23 24 25 27 26 26
26 26 27 27 31 30 30 30 30 25 15 12 15 16 16 16 15 14 14 14 14 14 15 14 14 16 17 16 16 19 20 20 19 21 22 23 19 20
25 25 25 26 27 30 29 28 28 25 19 18 16 14 14 13 14 14 14 14 15 15 15 15 15 15 17 18 18 17 17 18 19 18 17 16 17 6
23 22 23 24 25 29 28 28 27 27 25 22 20 18 16 15 15 15 15 16 17 17 17 17 17 17 18 18 18 18 16 15 15 16 17 15 8 6
21 20 20 21 22 24 28 27 27 26 26 24 22 21 20 18 17 17 17 17 18 19 20 20 20 21 21 17 18 17 14 16 15 16 18 16 16 13
17 18 18 19 19 22 24 27 27 26 26 25 24 23 22 21 20 19 19 19 19 19 20 20 20 18 15 16 18 15 15 17 16 14 15 16 14 14
14 15 15 16 16 17 22 24 27 27 26 25 24 24 23 22 22 21 20 20 20 19 19 18 18 17 16 17 16 14 15 16 17 17 16 16 17 16
Wind_Direction
328 327 326 325 324 322 321 320 317 313 308 310 309 310 307 305 304 305 304 302 299 297 297 298 296 284 273 271 263 261 260 246 249 249 252 252 253 253
332 333 332 331 331 329 325 321 319 313 307 309 306 307 306 303 301 302 302 300 299 296 293 292 294 292 277 266 262 251 254 259 256 252 253 253 253 253
337 336 335 335 333 328 325 321 317 315 308 304 307 305 303 301 299 299 300 300 297 295 295 291 285 285 284 268 260 253 252 255 258 255 254 255 255 253
338 336 336 335 331 330 328 325 321 318 313 307 307 307 304 302 298 296 297 297 296 292 289 290 292 280 276 275 260 256 253 255 255 254 252 257 257 253
338 338 336 334 332 330 328 325 323 320 317 313 309 309 306 303 298 295 294 294 293 291 288 283 283 283 273 269 264 257 254 253 252 253 251 252 256 255
341 338 336 334 332 330 329 327 325 322 319 314 310 307 305 303 300 294 291 293 290 291 288 282 277 275 275 271 263 257 255 253 252 251 250 251 252 255
340 339 338 335 332 331 330 329 327 323 321 317 313 310 306 302 296 294 290 291 290 290 287 282 277 271 271 273 269 264 257 253 252 253 250 249 250 254
341 340 339 337 336 335 332 330 329 327 326 323 319 314 307 301 296 292 289 288 286 294 287 283 280 271 267 267 268 264 261 260 257 255 255 254 252 252
343 342 342 342 340 340 340 341 338 334 328 326 323 321 314 305 296 289 286 285 284 288 284 276 276 269 269 267 266 264 261 261 261 259 256 255 254 253
349 348 346 346 348 349 351 347 343 341 339 335 326 322 320 309 299 291 288 287 284 284 281 273 274 266 267 267 265 264 262 261 259 260 259 257 257 257
353 352 352 353 355 356 353 351 350 350 351 347 338 326 317 284 287 288 274 278 274 275 275 272 273 270 271 266 267 268 264 261 259 260 260 261 259 258
357 357 357 357 357 355 357 359 2 1 360 1 5 360 228 227 236 234 241 243 259 266 268 267 267 267 266 275 275 281 276 268 262 261 261 261 261 260
359 359 1 0 355 0 6 9 9 8 15 23 33 220 240 218 223 224 217 224 234 236 262 268 265 265 269 276 280 285 282 279 270 265 263 264 263 261
2 3 5 356 356 6 11 14 13 23 32 52 215 228 246 254 258 257 232 215 217 214 239 235 260 267 275 278 275 283 289 287 279 269 266 267 267 266
8 6 8 358 354 11 11 12 19 31 48 245 253 249 249 250 254 250 249 242 216 213 223 230 246 257 267 274 281 281 283 286 283 277 273 272 272 271
11 11 13 4 356 11 7 13 25 33 58 246 256 256 250 258 255 252 242 255 252 261 264 257 252 259 279 288 296 268 288 281 292 288 283 278 277 275
14 15 15 13 353 353 350 358 23 37 276 282 288 285 279 275 273 274 268 261 254 247 250 270 260 240 222 218 214 215 216 222 236 250 263 266 278 280
19 18 17 18 360 348 344 342 348 322 294 278 293 297 288 279 273 269 266 248 246 248 241 244 248 226 227 244 252 235 237 241 256 258 276 289 312 306
20 20 19 18 13 344 343 338 334 322 303 299 297 292 285 273 268 261 259 257 253 251 252 255 259 259 251 248 259 284 290 291 288 307 330 350 339 57
23 23 21 20 19 355 339 334 330 328 324 314 306 301 295 285 281 276 273 268 265 263 267 268 274 275 275 283 288 301 315 332 341 340 347 9 64 130
22 25 25 24 20 16 345 332 328 325 327 322 316 312 310 300 293 289 285 284 283 280 277 277 272 265 263 301 306 312 336 327 348 349 350 6 9 35
21 24 26 25 25 17 9 336 328 324 323 325 320 316 315 314 307 301 298 297 296 292 287 281 285 294 317 314 313 328 334 332 343 8 15 18 24 19
19 24 27 28 28 26 12 1 330 324 322 320 320 318 315 315 315 314 312 310 308 307 307 303 307 314 320 320 323 336 339 338 341 342 355 7 9 11